Regional Weather Roundup
Issued by NWS Newport/Morehead, NC

Current Version | Previous Version | Graphics & Text | Print | Product List | Glossary Off
Versions: 1 2 3 4 5 6 7 8 9 10 11 12 13 14 15 16 17 18 19 20 21 22 23 24 25 26 27 28 29 30 31 32 33 34 35 36 37 38 39 40 41 42 43 44 45 46 47 48 49 50

670
ASUS42 KMHX 022213
RWRMHX
WEATHER ROUNDUP FOR EASTERN NORTH CAROLINA
NATIONAL WEATHER SERVICE NEWPORT/MOREHEAD CITY NC
600 PM EDT MON MAY 02 2016

NOTE: "FAIR" INDICATES FEW OR NO CLOUDS BELOW 12,000 FEET
WITH NO SIGNIFICANT WEATHER AND/OR OBSTRUCTIONS TO VISIBILITY

NCZ015>017-031-032-045>047-102-103-022300-
NORTH COAST

CITY           SKY/WX    TMP DP  RH WIND       PRES   REMARKS
EDENTON        MOSUNNY   82  69  63 SW8       29.90F
ELIZABETH CITY SUNNY     82  69  64 SW14G20   29.88F
KITTY HAWK     CLEAR     83  69  61 S6        29.90F
MANTEO         NOT AVBL

$$

NCZ045>047-081-094-103-104-022300-
CENTRAL COAST

CITY           SKY/WX    TMP DP  RH WIND       PRES   REMARKS
FRISCO         SUNNY     73  68  84 SW13      29.96F
SWANQUARTER    NOT AVBL

$$

NCZ095-097-098-100-101-022300-
SOUTHERN COAST

CITY           SKY/WX    TMP DP  RH WIND       PRES   REMARKS
BEAUFORT       CLOUDY    73  69  87 SW15      29.96F
CEDAR ISLAND   NOT AVBL
JACKSONVILLE   CLOUDY    74  67  78 S13G20    29.95S THUNDER
PINEY ISLAND   NOT AVBL
WILMINGTON     CLOUDY    80  66  62 S14G21    29.96R


$$

NCZ011>013-027>030-043-044-078>080-089-090>093-098-022300-
COASTAL PLAIN

CITY           SKY/WX    TMP DP  RH WIND       PRES   REMARKS
AHOSKIE        SUNNY     80  67  64 S3        29.88F
CLINTON        LGT RAIN  73  67  84 S9        29.96R
ELIZABETHTOWN  CLOUDY    68  66  92 E3        29.94F
GOLDSBORO      NOT AVBL
GREENVILLE     CLOUDY    81  70  69 SW7       29.93R
HAVELOCK       PTSUNNY   76  68  76 S15G24    29.96S
KENANSVILLE    CLOUDY    73  61  67 SW6       29.98R
KINSTON        NOT AVBL
NEW BERN       CLOUDY    78  66  66 S9G20     29.95S
RICHLANDS      CLOUDY    73  68  83 SW6       29.96R
ROCKY MOUNT    LGT RAIN  77  69  76 SW6       29.91R
WASHINGTON     PTSUNNY   78  66  66 S14G22    29.92R HAZE
WHITEVILLE     CLOUDY    79  68  69 SE7       29.93S

$$

AMZ130-135-150-152-154-156-158-170-250-252-270-ANZ085-086-088-633-658-670-022300-
MARINE OBSERVATIONS

STATION/POSITION TIME  TEMP    WIND        PRES    WAVE   SWELL
                       AIR SEA DIR/SP/G            HT/PER HT/PER
                 (UTC) (F)     (DEG/KT/KT) (MB)    (FT/S) (FT/S)
CHESAPEAKE LIGHT 2200   72     190/ 22/ 22 1011.6
64 E VA BEACH    2150   59 54  190/ 12/ 12 1012.6    4/10   3/10
DUCK             2100   80 58  220/ 13/ 17 1012.4
2 E DUCK         2111      60                N/A     3/11   2/11
OREGON INLET     2100   72 71  190/ 18/ 21 1013.8
13E OREGON INLT  2200      62                N/A     4/11   3/11
HATTERAS CG      2100   74 69  210/ 11/ 17 1014.5
DIAMOND BUOY     2150   75 74  200/ 17/ 19 1014.5    5/11   3/11
CAPE LOOKOUT     2200   72     210/ 10/ 13 1014.5
BEAUFORT LAB     2100   72 68  200/ 12/ 17 1014.1
30 SE NEW RVR IN 2125      70                N/A     4/11   2/11
27 SE WRIGHTSVLE 2108   74 72  210/ 10/ 14 1014.5
5 SE WRIGHTSVLE  2108   73 70  200/ 12/ 16 1015.4
225 S CAPE HAT   2150   74 75  170/ 12/ 14 1018.2    4/11   3/11
41 SE CHARLESTON 2150   76 76  190/ 10/ 12 1014.8    3/10   2/10

$$




USA.gov is the U.S. government's official web portal to all federal, state and local government web resources and services.